TimeCST,TemperatureF,Dew PointF,Humidity,Sea Level PressureIn,VisibilityMPH,Wind Direction,Wind SpeedMPH,Gust SpeedMPH,PrecipitationIn,Events,Conditions,WindDirDegrees,DateUTC
12:00 AM,74,73,96,30.01,12,Calm,Calm,,,,Scattered Clouds,,2013-12-09 06:00:00
3:00 AM,73,72,97,29.99,12,Calm,Calm,,,,Scattered Clouds,,2013-12-09 09:00:00
5:00 AM,71.6,71.6,100,29.98,6.2,Calm,Calm,-,N/A,,Partly Cloudy,0,2013-12-09 11:00:00
6:00 AM,71.6,71.6,100,29.98,0.3,Calm,Calm,-,N/A,Fog,Fog,0,2013-12-09 12:00:00
7:00 AM,73.4,71.6,94,30.01,0.3,Calm,Calm,-,N/A,Fog,Fog,0,2013-12-09 13:00:00
8:00 AM,73.4,73.4,100,30.04,0.3,Calm,Calm,-,N/A,Fog,Fog,0,2013-12-09 14:00:00
8:48 AM,73.4,73.4,100,30.04,0.6,WNW,3.5,-,N/A,,Mist,300,2013-12-09 14:48:00
9:00 AM,76,75,95,30.05,2,WNW,3.5,,,,,300,2013-12-09 15:00:00
9:00 AM,77.0,75.2,94,30.04,2.5,WNW,3.5,-,N/A,,Mostly Cloudy,300,2013-12-09 15:00:00
9:20 AM,77.0,75.2,94,30.04,6.2,WNW,2.3,-,N/A,,Scattered Clouds,290,2013-12-09 15:20:00
10:00 AM,80.6,75.2,84,30.03,6.2,Calm,Calm,-,N/A,,Scattered Clouds,0,2013-12-09 16:00:00
11:00 AM,84.2,75.2,74,30.01,6.2,East,5.8,-,N/A,,Scattered Clouds,90,2013-12-09 17:00:00
12:00 PM,84,75,67,29.99,14,East,6.9,,,,Partly Cloudy,80,2013-12-09 18:00:00
12:00 PM,84.2,75.2,74,29.99,6.2,East,6.9,-,N/A,,Scattered Clouds,80,2013-12-09 18:00:00
1:00 PM,84.2,73.4,70,29.95,6.2,East,8.1,-,N/A,,Scattered Clouds,90,2013-12-09 19:00:00
2:00 PM,84.2,73.4,70,29.93,6.2,ENE,8.1,-,N/A,,Partly Cloudy,70,2013-12-09 20:00:00
3:00 PM,83,72,62,29.93,14,ENE,6.9,,,,Partly Cloudy,60,2013-12-09 21:00:00
3:00 PM,84.2,71.6,66,29.92,6.2,ENE,6.9,-,N/A,,Mostly Cloudy,60,2013-12-09 21:00:00
4:00 PM,82.4,73.4,74,29.93,6.2,East,6.9,-,N/A,,Mostly Cloudy,90,2013-12-09 22:00:00
5:00 PM,77.0,71.6,83,2.99,5.0,NE,6.9,-,N/A,Rain,Light Rain Showers,50,2013-12-09 23:00:00
6:00 PM,77,73,83,29.97,12,NE,2.3,,,,Partly Cloudy,40,2013-12-10 00:00:00
6:00 PM,77.0,73.4,89,29.96,6.2,NE,2.3,-,N/A,,Scattered Clouds,40,2013-12-10 00:00:00
9:00 PM,75,73,92,30.02,12,,1.2,,,,Scattered Clouds,,2013-12-10 03:00:00